This is the latest recevied weather packets stored in our database for station/object W9WRP. If no packets are shown the sender has not sent any weather packets the latest 10 day(s).
| Time | Temp. | Humidity | Pressure | Rain* | Wind** | Luminosity | Snow |
|---|---|---|---|---|---|---|---|
| 1787415781 | 38.33° C | 22% | 1017.8 hPa | 0 mm | - | 198 W/m² | - |
| 1787415480 | 37.78° C | 23% | 1017.8 hPa | 0 mm | - | 161 W/m² | - |
| 1787415175 | 37.78° C | 23% | 1017.5 hPa | 0 mm | - | 347 W/m² | - |
| 1787414871 | 37.78° C | 24% | 1017.7 hPa | 0 mm | - | 376 W/m² | - |
| 1787414567 | 37.22° C | 24% | 1017.6 hPa | 0 mm | - | 143 W/m² | - |
| 1787414265 | 37.22° C | 24% | 1017.8 hPa | 0 mm | - | 140 W/m² | - |
| 1787413960 | 36.67° C | 25% | 1017.5 hPa | 0 mm | - | 91 W/m² | - |
| 1787413659 | 36.67° C | 25% | 1017.6 hPa | 0 mm | - | 104 W/m² | - |
| 1787413354 | 36.67° C | 25% | 1017.6 hPa | 0 mm | - | 101 W/m² | - |
| 1787413050 | 36.11° C | 26% | 1017.6 hPa | 0 mm | - | 126 W/m² | - |
| 1787412746 | 36.11° C | 26% | 1017.8 hPa | 0 mm | - | 95 W/m² | - |
| 1787412445 | 36.11° C | 25% | 1017.7 hPa | 0 mm | - | 48 W/m² | - |
| 1787412141 | 35.56° C | 26% | 1017.7 hPa | 0 mm | - | 46 W/m² | - |
| 1787411839 | 35.56° C | 26% | 1017.7 hPa | 0 mm | - | 73 W/m² | - |
| 1787411534 | 35.56° C | 26% | 1017.7 hPa | 0 mm | - | 59 W/m² | - |
| 1787411229 | 35.56° C | 26% | 1017.8 hPa | 0 mm | - | 48 W/m² | - |
| 1787410925 | 35.56° C | 26% | 1017.4 hPa | 0 mm | - | 42 W/m² | - |
| 1787410621 | 35° C | 27% | 1017.7 hPa | 0 mm | - | 65 W/m² | - |
| 1787410316 | 34.44° C | 28% | 1017.6 hPa | 0 mm | - | 52 W/m² | - |
| 1787410012 | 34.44° C | 28% | 1017.6 hPa | 0 mm | - | 93 W/m² | - |
| 1787409708 | 33.89° C | 29% | 1017.8 hPa | 0 mm | - | 45 W/m² | - |
| 1787409403 | 33.89° C | 29% | 1017.5 hPa | 0 mm | - | 42 W/m² | - |
| 1787409098 | 33.33° C | 30% | 1017.5 hPa | 0 mm | - | 59 W/m² | - |
| 1787408789 | 33.33° C | 30% | 1017.5 hPa | 0 mm | - | 35 W/m² | - |
| 1787408484 | 32.78° C | 30% | 1017.5 hPa | 0 mm | - | 37 W/m² | - |
* Rain latest hour (hover to see other rain measurements)
** Current wind speed in m/s (hover to see current wind gust speed)